User: anonymous   Login
Location: Bradford+West+Gwillimbury,+ON,+Canadà
(44.1162°N, 79.5735°W)
Time: 21:30:01
(UTC-04:00)
Language:

STARLINK-2733 - Orbit

View from above orbital plane
View from above orbital plane
View from above satellite
View from above satellite

Ground track
Ground track

The orbit data is extracted from the following two-line orbital elements,

1 48645C 21044H   21268.75139884  .00000945  00000-0  63314-4 0  2680
2 48645  53.0532 220.7249 0001704  65.4846 347.0003 15.06401656    10
Epoch (UTC): 25 September 2021 18:02:00
Eccentricity: 0.0001704
inclination: 53.0532°
perigee height: 546 km
apogee height: 548 km
right ascension of ascending node: 220.7249°
argument of perigee: 65.4846°
revolutions per day: 15.06401656
mean anomaly at epoch: 347.0003°
orbit number at epoch: 1

The dashed part of the orbit path shows where the satellite is in the earth's shadow,  

DLR